User: anonymous   Login
Location: Unspecified
(0.0000°N, 0.0000°E)
Time: 10:18:10
(UTC+00:00)
Language:

PERSEUS M2 - Orbit

View from above orbital plane
View from above orbital plane
View from above satellite
View from above satellite

Ground track
Ground track

The orbit data is extracted from the following two-line orbital elements,

1 40037U 14033AD  17294.89926529 +.00000168 +00000-0 +25413-4 0  9992
2 40037 097.9038 202.9602 0013072 248.8579 111.1239 14.86277722180631
Epoch (UTC): 21 October 2017 21:34:56
Eccentricity: 0.0013072
inclination: 97.9038°
perigee height: 600 km
apogee height: 619 km
right ascension of ascending node: 202.9602°
argument of perigee: 248.8579°
revolutions per day: 14.86277722
mean anomaly at epoch: 111.1239°
orbit number at epoch: 18063

The dashed part of the orbit path shows where the satellite is in the earth's shadow,  

DLR